Time,TemperatureF,DewpointF,PressureIn,WindDirection,WindDirectionDegrees,WindSpeedMPH,WindSpeedGustMPH,Humidity,HourlyPrecipIn,Conditions,Clouds,dailyrainin,SoftwareType,DateUTC
2013-06-13 00:33:00,68.0,-99.9,29.86,NW,316,-999.0,-999.0,-999,0.00,,,-99.99,,2013-06-13 04:33:00,
2013-06-13 00:43:00,68.0,-99.9,29.86,NW,316,-999.0,-999.0,-999,0.00,,,-99.99,,2013-06-13 04:43:00,
2013-06-13 00:52:00,68.0,-99.9,29.86,NW,316,-999.0,-999.0,-999,0.00,,,-99.99,,2013-06-13 04:52:00,
2013-06-13 01:33:00,68.0,-99.9,29.86,NW,316,-999.0,-999.0,-999,0.00,,,-99.99,,2013-06-13 05:33:00,
2013-06-13 01:43:00,68.0,-99.9,29.86,NW,316,-999.0,-999.0,-999,0.00,,,-99.99,,2013-06-13 05:43:00,
2013-06-13 01:52:00,67.0,-99.9,29.84,NW,316,-999.0,-999.0,-999,0.00,,,-99.99,,2013-06-13 05:52:00,
2013-06-13 02:33:00,67.0,-99.9,29.84,NW,316,-999.0,-999.0,-999,0.00,,,-99.99,,2013-06-13 06:33:00,
2013-06-13 02:44:00,67.0,-99.9,29.84,NW,316,-999.0,-999.0,-999,0.00,,,-99.99,,2013-06-13 06:44:00,
2013-06-13 02:52:00,68.0,-99.9,29.83,NW,316,-999.0,-999.0,-999,0.00,,,-99.99,,2013-06-13 06:52:00,
2013-06-13 03:33:00,68.0,-99.9,29.83,NW,316,-999.0,-999.0,-999,0.00,,,-99.99,,2013-06-13 07:33:00,
2013-06-13 03:42:00,68.0,-99.9,29.83,NW,316,-999.0,-999.0,-999,0.00,,,-99.99,,2013-06-13 07:42:00,
2013-06-13 03:52:00,67.0,-99.9,29.81,NW,316,-999.0,-999.0,-999,0.00,,,-99.99,,2013-06-13 07:52:00,
2013-06-13 04:32:00,67.0,-99.9,29.81,NW,316,-999.0,-999.0,-999,0.00,,,-99.99,,2013-06-13 08:32:00,
2013-06-13 04:43:00,67.0,-99.9,29.81,NW,316,-999.0,-999.0,-999,0.00,,,-99.99,,2013-06-13 08:43:00,
2013-06-13 04:52:00,67.0,-99.9,29.80,NW,316,-999.0,-999.0,-999,0.00,,,-99.99,,2013-06-13 08:52:00,
2013-06-13 05:32:00,67.0,-99.9,29.80,NW,316,-999.0,-999.0,-999,0.00,,,-99.99,,2013-06-13 09:32:00,
2013-06-13 05:42:00,67.0,-99.9,29.80,NW,316,-999.0,-999.0,-999,0.00,,,-99.99,,2013-06-13 09:42:00,
2013-06-13 05:52:00,67.0,-99.9,29.79,NW,316,-999.0,-999.0,-999,0.00,,,-99.99,,2013-06-13 09:52:00,
2013-06-13 06:33:00,67.0,-99.9,29.79,NW,316,-999.0,-999.0,-999,0.00,,,-99.99,,2013-06-13 10:33:00,
2013-06-13 06:43:00,67.0,-99.9,29.79,NW,316,-999.0,-999.0,-999,0.00,,,-99.99,,2013-06-13 10:43:00,
2013-06-13 06:52:00,67.0,-99.9,29.75,NW,316,-999.0,-999.0,-999,0.00,,,-99.99,,2013-06-13 10:52:00,
2013-06-13 07:32:00,67.0,-99.9,29.75,NW,316,-999.0,-999.0,-999,0.00,,,-99.99,,2013-06-13 11:32:00,
2013-06-13 07:43:00,67.0,-99.9,29.75,NW,316,-999.0,-999.0,-999,0.00,,,-99.99,,2013-06-13 11:43:00,
2013-06-13 07:52:00,68.0,-99.9,29.74,NW,316,-999.0,-999.0,-999,0.00,,,-99.99,,2013-06-13 11:52:00,
2013-06-13 08:35:00,68.0,-99.9,29.74,NW,316,-999.0,-999.0,-999,0.00,,,-99.99,,2013-06-13 12:35:00,
2013-06-13 08:43:00,68.0,-99.9,29.74,NW,316,-999.0,-999.0,-999,0.00,,,-99.99,,2013-06-13 12:43:00,
2013-06-13 08:52:00,67.0,-99.9,29.72,NW,316,-999.0,-999.0,-999,0.00,,,-99.99,,2013-06-13 12:52:00,
2013-06-13 09:43:00,67.0,-99.9,29.72,NW,316,-999.0,-999.0,-999,0.00,,,-99.99,,2013-06-13 13:43:00,
2013-06-13 09:52:00,66.0,-99.9,29.68,NW,316,-999.0,-999.0,-999,0.00,,,-99.99,,2013-06-13 13:52:00,
2013-06-13 10:43:00,66.0,-99.9,29.68,NW,316,-999.0,-999.0,-999,0.00,,,-99.99,,2013-06-13 14:43:00,
2013-06-13 10:52:00,67.0,-99.9,29.67,NW,316,-999.0,-999.0,-999,0.00,,,-99.99,,2013-06-13 14:52:00,
2013-06-13 11:33:00,67.0,-99.9,29.67,NW,316,-999.0,-999.0,-999,0.00,,,-99.99,,2013-06-13 15:33:00,
2013-06-13 11:43:00,67.0,-99.9,29.67,NW,316,-999.0,-999.0,-999,0.00,,,-99.99,,2013-06-13 15:43:00,
2013-06-13 11:52:00,66.0,-99.9,29.65,NNW,348,-999.0,-999.0,-999,0.70,,,-99.99,,2013-06-13 15:52:00,
2013-06-13 12:33:00,66.0,-99.9,29.65,NNW,348,-999.0,-999.0,-999,0.70,,,-99.99,,2013-06-13 16:33:00,
2013-06-13 12:43:00,66.0,-99.9,29.65,NNW,348,-999.0,-999.0,-999,0.70,,,-99.99,,2013-06-13 16:43:00,
2013-06-13 12:52:00,66.0,-99.9,29.58,NNW,348,-999.0,-999.0,-999,0.00,,,-99.99,,2013-06-13 16:52:00,
2013-06-13 13:33:00,66.0,-99.9,29.58,NNW,348,-999.0,-999.0,-999,0.00,,,-99.99,,2013-06-13 17:33:00,
2013-06-13 13:43:00,66.0,-99.9,29.58,NNW,348,-999.0,-999.0,-999,0.00,,,-99.99,,2013-06-13 17:43:00,
2013-06-13 13:52:00,69.0,-99.9,29.55,NNW,348,-999.0,-999.0,-999,0.00,,,-99.99,,2013-06-13 17:52:00,
2013-06-13 14:43:00,69.0,-99.9,29.55,NNW,348,-999.0,-999.0,-999,0.00,,,-99.99,,2013-06-13 18:43:00,
2013-06-13 14:52:00,69.0,-99.9,29.55,NNW,348,-999.0,-999.0,-999,0.00,,,-99.99,,2013-06-13 18:52:00,
2013-06-13 15:33:00,69.0,-99.9,29.55,NNW,348,-999.0,-999.0,-999,0.00,,,-99.99,,2013-06-13 19:33:00,
2013-06-13 15:43:00,69.0,-99.9,29.55,NNW,348,-999.0,-999.0,-999,0.00,,,-99.99,,2013-06-13 19:43:00,
2013-06-13 15:52:00,70.0,-99.9,29.52,NNW,348,-999.0,-999.0,-999,0.00,,,-99.99,,2013-06-13 19:52:00,
2013-06-13 16:44:00,70.0,-99.9,29.52,NNW,348,-999.0,-999.0,-999,0.00,,,-99.99,,2013-06-13 20:44:00,
2013-06-13 16:52:00,73.0,-99.9,29.49,NNW,348,-999.0,-999.0,-999,0.00,,,-99.99,,2013-06-13 20:52:00,
2013-06-13 17:34:00,73.0,-99.9,29.49,NNW,348,-999.0,-999.0,-999,0.00,,,-99.99,,2013-06-13 21:34:00,
2013-06-13 17:43:00,73.0,-99.9,29.49,NNW,348,-999.0,-999.0,-999,0.00,,,-99.99,,2013-06-13 21:43:00,
2013-06-13 17:52:00,70.0,-99.9,29.45,NNW,348,-999.0,-999.0,-999,0.00,,,-99.99,,2013-06-13 21:52:00,
2013-06-13 18:33:00,70.0,-99.9,29.45,NNW,348,-999.0,-999.0,-999,0.00,,,-99.99,,2013-06-13 22:33:00,
2013-06-13 18:43:00,70.0,-99.9,29.45,NNW,348,-999.0,-999.0,-999,0.00,,,-99.99,,2013-06-13 22:43:00,
2013-06-13 18:52:00,68.0,-99.9,29.46,NNW,348,-999.0,-999.0,-999,0.47,,,-99.99,,2013-06-13 22:52:00,
2013-06-13 19:32:00,68.0,-99.9,29.46,NNW,348,-999.0,-999.0,-999,0.47,,,-99.99,,2013-06-13 23:32:00,
2013-06-13 19:43:00,68.0,-99.9,29.46,NNW,348,-999.0,-999.0,-999,0.47,,,-99.99,,2013-06-13 23:43:00,
2013-06-13 19:52:00,70.0,-99.9,29.46,NNW,348,-999.0,-999.0,-999,0.00,,,-99.99,,2013-06-13 23:52:00,
2013-06-13 20:34:00,70.0,-99.9,29.46,NNW,348,-999.0,-999.0,-999,0.00,,,-99.99,,2013-06-14 00:34:00,
2013-06-13 20:43:00,70.0,-99.9,29.46,NNW,348,-999.0,-999.0,-999,0.00,,,-99.99,,2013-06-14 00:43:00,
2013-06-13 20:52:00,70.0,-99.9,29.44,NNW,348,-999.0,-999.0,-999,0.00,,,-99.99,,2013-06-14 00:52:00,
2013-06-13 21:33:00,70.0,-99.9,29.44,NNW,348,-999.0,-999.0,-999,0.00,,,-99.99,,2013-06-14 01:33:00,
2013-06-13 21:43:00,70.0,-99.9,29.44,NNW,348,-999.0,-999.0,-999,0.00,,,-99.99,,2013-06-14 01:43:00,
2013-06-13 21:52:00,69.0,-99.9,29.45,NNW,348,-999.0,-999.0,-999,0.00,,,-99.99,,2013-06-14 01:52:00,
2013-06-13 22:33:00,69.0,-99.9,29.45,NNW,348,-999.0,-999.0,-999,0.00,,,-99.99,,2013-06-14 02:33:00,
2013-06-13 22:43:00,69.0,-99.9,29.45,NNW,348,-999.0,-999.0,-999,0.00,,,-99.99,,2013-06-14 02:43:00,
2013-06-13 22:52:00,68.0,-99.9,29.44,NNW,348,-999.0,-999.0,-999,0.00,,,-99.99,,2013-06-14 02:52:00,
2013-06-13 23:34:00,68.0,-99.9,29.44,NNW,348,-999.0,-999.0,-999,0.00,,,-99.99,,2013-06-14 03:34:00,
2013-06-13 23:43:00,68.0,-99.9,29.44,NNW,348,-999.0,-999.0,-999,0.00,,,-99.99,,2013-06-14 03:43:00,
2013-06-13 23:52:00,69.0,-99.9,29.46,NNW,348,-999.0,-999.0,-999,0.01,,,-99.99,,2013-06-14 03:52:00,